DELTA 1 DEB, 21336

Orbit data source: Space-Track

DELTA 1 DEB, 21336 is space debris in SSO originally from a launch on Thu, 12 Jun 1975 UTC launched from the Air Force Western Test Range (AFWTR). Debris objects in space refer to the collection of defunct objects orbiting the Earth. Examples of debris include non-operational satellites, rocket bodies, and fragments generated from explosions, collisions, or faulty payload assembly.

Loading next visibility...
Identifier
21336, 1975-052BE
Orbit
SSO
Country
Flag of USUS
Related business
Manufacturer
Unknown
Mission
Spacecraft
Bus & Motor
Unknown
Mass
Unknown
Launch date (UTC)
1975-06-12 (51 years ago)
Launch vehicle
Unknown
Launch site
Air Force Western Test Range (AFWTR)
Object type
Payload
Rocket body
Debris
Shape & HBR
Unknown shape, 0.1 m
Radar Cross Section
Medium (>0.1 m² and <1 m²)

Expand to show TLE details & history
Last TLE update: 2 days ago

TLE from 2 days ago
0 DELTA 1 DEB
1 21336U 75052BE  26167.67578245  .00004602  00000-0  81743-2 0  9997
2 21336  99.2006  61.6335 0162497 245.2864 170.0270 13.37783610691032
Epoch: 2026-06-16T16:13Z
TLE epoch observation values (Epoch: 2026-06-16T16:13:07.603Z)
Latitude
54.66106°
Longitude
-99.7302°
Altitude
1,246.533 km
Speed
7.179 km/s
True Right ascension
03h 13m 59s
True Declination
54° 30' 33"
Sunlit
Object was in daylight at epoch
Visualization orbit readout
Latitude
Unknown
Longitude
Unknown
Altitude
Unknown
Speed
Unknown
Apparent Right ascension
Unknown
Apparent Declination
Unknown
Sunlit
N/A
Visualization observer readout
Local Sidereal Time
20:23:28
Azimuth
Unknown
Elevation
Unknown
Doppler factor
Unknown
Orbital elements
Apogee altitude
1,236.597 km
Perigee altitude
993.08 km
Semi-major axis
7,492.976 km
Eccentricity
0.01625
Inclination
99.2006°
RAAN
61.6335°
Arg. of periapsis
245.2864°
True anomaly
170.34315°
Mean anomaly
170.027°
Eccentric anomaly
170.1857°
Mean motion
3.34628 °/min
Orbital period
107.58 mins
BSTAR
0.0081743
Loading maneuver chart data...
Computing Atmospheric mass density...
Loading historical data...
Loading historical data...
Loading historical data...
Loading historical data...
Loading historical data...
Loading historical data...
Loading historical data...

Documentation

Showing up to 5 results
|